World > North America > United States > Pennsylvania > Bart  

Bart, PA Hourly Weather Updates

Feedback E-mail the Weather

Quick Clicks

Bart, PA Weather Maps

°F °C°F °C
Bart Weather Map
UTC Time: 6/13/2024, 20:59
Your Time:

Bart, PA Regional Weather

Expires:202406132100;;961493
ASUS41 KPHI 132010
RWRPHI

REGIONAL WEATHER ROUNDUP
NATIONAL WEATHER SERVICE MOUNT HOLLY NJ
400 PM EDT THU JUN 13 2024

NOTE:  "FAIR" INDICATES FEW OR NO CLOUDS BELOW 12,000 FEET WITH NO
SIGNIFICANT WEATHER AND/OR OBSTRUCTIONS TO VISIBILITY.

 * = STATION DOES NOT REPORT PRECIPITATION (E.G. RAIN, SNOW, ETC.) 
        OR FOG.


PAZ043-044-047-054-055-060>062-066>071-132100-
EASTERN PENNSYLVANIA
  
CITY           SKY/WX    TMP DP  RH WIND       PRES   REMARKS
PHILADELPHIA   PTSUNNY   86  62  44 S8G17     29.97F                  
NORTH PHILA    MOSUNNY   88  58  36 SW8G20    29.98F                  
BLUE BELL*     MOSUNNY   87  59  39 SW9       29.98F                  
DOYLESTOWN     MOSUNNY   84  60  44 S10       29.96F                  
QUAKERTOWN*    MOSUNNY   84  61  45 VRB7      29.97F                  
PERKASIE*      SUNNY     82  61  47 VRB5G12   29.98F                  
POTTSTOWN      MOSUNNY   87  61  41 SW10      29.98F                  
LANCASTER      MOSUNNY   86  64  47 S9G18     29.95F                  
COATESVILLE    MOSUNNY   82  63  51 S8        29.99F                  
WEST CHESTER   MOSUNNY   86  61  42 S5        29.98F                  
READING        PTSUNNY   87  61  41 S9        29.94F                  
ALLENTOWN      MOSUNNY   84  59  42 S10       29.95F                  
QN CITY/ALNTWN   N/A     86  61  42 S9        29.97F                  
MOUNT POCONO   NOT AVBL                                               
HAZLETON       MOSUNNY   81  54  39 S5        30.03F                  
LEHIGHTON      SUNNY     84  55  37 SW5       29.96F                  
WILKES BARRE   SUNNY     85  54  34 SW8G17    29.95F                  

$$

SKY/WX - Weather  TMP - Temperature  DP - Dew Point  RH - Humidity
WIND - Wind Direction/Speed PRES - Barometric Pressure VSB - Visibility
WCI - Wind Chill Index E13G22 Wind - East Wind 13 mph/Gusts of 22 mph

Trending Headlines

Trending Entertainment Headlines

Bart Radar Loop

Use the map search tool if you want to place a location marker on the radar map...

Bart Quick Facts

National Two Day Weather Forecast


E-mail the Bart Weather Forecast

Voice your opinion or tell us about page issues...